[[{"header":{"parameterUnit":"m.s-1","parameterCategory":1,"la1":30.2991,"la2":30.254,"lo1":-89.0895,"lo2":-89.0444,"dy":0.0017,"dx":0.0017,"nx":28,"ny":28,"refTime":"2023-10-29T09:00:00:Z","depth":0,"parameterNumber":2,"parameterNumberName":"U-component_of_WINDS"},"data":[0,0,0,0,0,0,0,0,0,0,0,0,0,0,0,0,0,0,0,0,0,0,0,0,0,0,0,0,0,0,0,0,0,0,0,0,0,0,0,0,0,0,0,0,0,0,0,0,0,0,0,0,0,0,0,0,0,0,-3.2796,-3.2796,0,-3.2796,-3.2796,-3.2796,-3.2707,-3.2705,-3.2703,-3.27,-3.2701,-3.2703,-3.2705,0,0,0,0,0,0,0,0,0,0,0,0,0,-3.2718,-3.272,-3.2796,-3.2796,-3.2796,-3.2796,-3.2796,-3.2796,-3.2708,-3.2705,-3.2702,-3.2699,-3.27,-3.2703,-3.2705,0,0,0,0,0,0,0,0,0,0,0,0,0,-3.2738,-3.272,-3.2796,-3.2752,-3.2748,-3.2796,-3.2796,-3.2796,-3.2708,-3.2705,-3.2701,-3.2698,-3.2699,-3.2702,-3.2706,-3.2796,0,0,-3.2716,-3.2717,0,0,0,0,0,0,0,0,-3.2737,-3.2741,-3.2758,-3.2755,-3.275,-3.2748,-3.2769,-3.2796,-3.2709,-3.2723,-3.27,-3.2696,-3.2719,-3.2721,-3.2729,-3.2796,-3.2796,-3.2716,-3.2718,-3.2719,-3.272,0,0,0,0,0,0,0,-3.2736,-3.2741,-3.2796,-3.2758,-3.2754,-3.2732,-3.2731,-3.2774,-3.2741,-3.2722,-3.2715,-3.2717,-3.2716,-3.2726,-3.2728,-3.2796,-3.2716,-3.2719,-3.2721,-3.2722,-3.294,-3.2944,0,0,0,0,0,0,-3.2741,-3.274,-3.2796,-3.2796,-3.2735,-3.2736,-3.2735,-3.2752,-3.274,-3.2735,-3.272,-3.2712,-3.2722,-3.2724,-3.2728,-3.2833,-3.2719,-3.2722,-3.2724,-3.2936,-3.2941,-3.2945,0,0,0,0,0,0,-3.2739,-3.2747,-3.2796,-3.2766,-3.2771,-3.2741,-3.2761,-3.2754,-3.2763,-3.2739,-3.2732,-3.2735,-3.2719,-3.2723,-3.278,-3.2832,-3.2724,-3.2727,-3.2932,-3.2938,-3.2943,-3.3046,0,0,0,0,0,0,-3.2738,-3.2747,-3.2781,-3.2768,-3.2773,-3.2849,-3.2765,-3.2757,-3.2769,-3.276,-3.2751,-3.2747,-3.2717,-3.2776,-3.2784,-3.2835,-3.2729,-3.2927,-3.2934,-3.2941,-3.3037,-3.3054,-3.3069,0,0,0,0,0,-3.2735,-3.2809,-3.2783,-3.279,-3.2815,-3.2852,-3.2854,-3.2819,-3.2774,-3.2808,-3.2792,-3.2747,-3.2826,-3.2782,-3.279,-3.2843,-3.2924,-3.2932,-3.2941,-3.3031,-3.3051,-3.3068,0,0,0,0,0,0,-3.2828,-3.2806,-3.2777,-3.2849,-3.2853,-3.2837,-3.2878,-3.2841,-3.2858,-3.2848,-3.2803,-3.2802,-3.2866,-3.2861,-3.2813,-3.2931,-3.2867,-3.2877,-3.2932,-3.2951,-3.2967,-3.2966,-3.2732,0,0,0,0,0,-3.2857,-3.2889,-3.2868,-3.2934,-3.2937,-3.2908,-3.2923,-3.2895,-3.2897,-3.2898,-3.2886,-3.289,-3.2916,-3.2933,-3.2956,-3.3037,-3.3034,-3.3077,-3.3093,-3.3106,-3.3115,-3.3158,-3.3177,-3.2973,-3.2973,-3.2973,0,0,-3.2916,-3.2909,-3.2931,-3.2952,-3.2952,-3.2986,-3.291,-3.2949,-3.2973,-3.2904,-3.2957,-3.2949,-3.2951,-3.3021,-3.3051,-3.3018,-3.3171,-3.3117,-3.3127,-3.3129,-3.3169,-3.3188,-3.3206,-3.2979,-3.2978,-3.2977,0,0,-3.3042,-3.304,-3.3095,-3.3097,-3.3098,-3.3078,-3.3091,-3.3081,-3.3073,-3.3126,-3.3075,-3.3104,-3.3149,-3.3152,-3.316,-3.329,-3.3249,-3.3299,-3.3379,-3.3422,-3.3438,-3.3452,-3.3498,-3.3516,-3.3309,-3.3309,-3.3309,0,-3.3116,-3.3165,-3.3127,-3.317,-3.3181,-3.3121,-3.3176,-3.3179,-3.3188,-3.3197,-3.316,-3.3216,-3.3213,-3.3283,-3.3315,-3.3323,-3.3337,-3.3299,-3.3439,-3.3453,-3.3465,-3.3509,-3.3526,-3.3315,-3.3314,-3.3314,-3.3313,0,-3.3256,-3.3291,-3.3335,-3.3346,-3.3362,-3.3411,-3.338,-3.3401,-3.3373,-3.3358,-3.3413,-3.3408,-3.3428,-3.3443,-3.3415,-3.351,-3.3489,-3.3447,-3.338,-3.3491,-3.3531,-3.3548,-3.3324,-3.3321,-3.332,-3.3318,0,0,-3.3437,-3.3428,-3.3445,-3.3449,-3.3447,-3.3473,-3.3521,-3.3541,-3.356,-3.3569,-3.3606,-3.3647,-3.3608,-3.3617,-3.359,-3.3628,-3.3732,-3.358,-3.358,-3.3608,-3.3835,-3.3867,-3.3886,-3.3705,-3.3708,-3.3711,-3.3835,0,-3.3559,-3.3638,-3.3606,-3.3688,-3.372,-3.3665,-3.3706,-3.371,-3.3697,-3.3723,-3.3709,-3.3739,-3.3685,-3.369,-3.3725,-3.3712,-3.3776,-3.3702,-3.374,-3.3742,-3.374,-3.3907,-3.394,-3.4057,-3.3851,-3.3853,-3.3855,0,-3.371,-3.3726,-3.3812,-3.3805,-3.3818,-3.3855,-3.3872,-3.3897,-3.3901,-3.3889,-3.3901,-3.3866,-3.3912,-3.3848,-3.3911,-3.3861,-3.3875,-3.3871,-3.3875,-3.3875,-3.3804,-3.3912,-3.4094,-3.4111,-3.388,-3.3878,-3.3876,0,-3.3833,-3.3876,-3.3933,-3.3938,-3.3933,-3.396,-3.3959,-3.3959,-3.3974,-3.399,-3.3999,-3.4019,-3.403,-3.4048,-3.4019,-3.3975,-3.4087,-3.402,-3.4078,-3.4079,-3.4102,-3.4101,-3.4288,-3.4114,-3.4114,-3.4113,-3.4113,0,-3.3971,-3.4025,-3.3988,-3.4023,-3.4082,-3.4046,-3.4106,-3.4099,-3.41,-3.4133,-3.4087,-3.4119,-3.408,-3.4109,-3.4088,-3.4143,-3.4149,-3.4141,-3.4134,-3.4144,-3.4145,-3.4151,-3.4142,-3.4118,-3.4117,-3.4116,-3.4115,0,-3.4117,-3.4094,-3.4152,-3.4143,-3.4142,-3.4187,-3.4179,-3.4211,-3.4196,-3.4238,-3.4246,-3.4223,-3.4255,-3.4229,-3.4259,-3.4245,-3.4319,-3.4301,-3.4317,-3.4312,-3.4371,-3.4366,-3.4568,-3.4593,-3.4404,-3.4406,-3.4407,0,-3.4205,-3.4246,-3.4242,-3.4261,-3.4263,-3.4294,-3.4309,-3.4277,-3.4295,-3.4303,-3.4335,-3.4362,-3.4382,-3.4435,-3.4421,-3.4444,-3.4426,-3.4496,-3.4429,-3.4438,-3.4426,-3.4424,-3.4428,-3.4509,-3.4511,-3.4513,-3.4514,0,-3.4364,-3.4352,-3.4376,-3.4397,-3.4418,-3.4432,-3.4444,-3.4462,-3.4429,-3.4451,-3.4483,-3.4499,-3.4531,-3.4559,-3.4578,-3.4577,-3.4541,-3.4536,-3.455,-3.456,-3.4567,-3.4563,-3.4353,-3.453,-3.4529,-3.4528,-3.4527,-3.4526,-3.4483,-3.4517,-3.452,-3.4549,-3.4555,-3.4567,-3.4597,-3.4587,-3.4613,-3.4637,-3.4616,-3.4655,-3.4659,-3.4681,-3.4685,-3.4715,-3.4686,-3.4708,-3.4713,-3.4718,-3.4726,-3.4564,-3.4719,-3.4718,-3.4718,-3.4717,-3.4717,0,-3.4639,-3.4639,-3.4666,-3.4684,-3.4708,-3.4673,-3.4684,-3.4706,-3.474,-3.4748,-3.4769,-3.4807,-3.4835,-3.4824,-3.4849,-3.4875,-3.4859,-3.4883,-3.4879,-3.488,-3.4751,-3.4735,-3.4895,-3.4895,-3.4895,-3.4895,-3.4895,-3.4895,-3.4722,-3.4778,-3.4767,-3.4825,-3.4825,-3.4862,-3.4872,-3.4884,-3.4889,-3.4933,-3.4957,-3.495,-3.4951,-3.4976,-3.5,-3.4997,-3.5007,-3.5037,-3.5027,-3.4906,-3.4889,-3.4872,-3.4857,-3.504,-3.504,-3.5153,-3.5155,-3.5155]},{"header":{"parameterUnit":"m.s-1","parameterCategory":1,"la1":30.2991,"la2":30.254,"lo1":-89.0895,"lo2":-89.0444,"dy":0.0017,"dx":0.0017,"nx":28,"ny":28,"refTime":"2023-10-29T09:00:00:Z","depth":0,"parameterNumber":3,"parameterNumberName":"V-component_of_WINDS"},"data":[0,0,0,0,0,0,0,0,0,0,0,0,0,0,0,0,0,0,0,0,0,0,0,0,0,0,0,0,0,0,0,0,0,0,0,0,0,0,0,0,0,0,0,0,0,0,0,0,0,0,0,0,0,0,0,0,0,0,1.1221,1.1219,0,1.1011,1.1009,1.1006,1.1001,1.1004,1.1006,1.1009,1.0788,1.078,1.0772,0,0,0,0,0,0,0,0,0,0,0,0,0,1.1613,1.1605,1.1221,1.1218,1.1216,1.1011,1.1008,1.1006,1.1,1.1004,1.1007,1.101,1.0791,1.0781,1.0771,0,0,0,0,0,0,0,0,0,0,0,0,0,1.1426,1.1603,1.1221,1.1189,1.1184,1.1012,1.1008,1.1005,1.1,1.1004,1.1008,1.1011,1.0794,1.0782,1.077,1.0615,0,0,1.0731,1.0726,0,0,0,0,0,0,0,0,1.1437,1.1412,1.1196,1.1191,1.1185,1.1036,1.1066,1.0874,1.0999,1.1069,1.1009,1.1013,1.0867,1.0849,1.0801,1.0604,1.0595,1.073,1.0723,1.0717,1.0714,0,0,0,0,0,0,0,1.145,1.1421,1.1138,1.1193,1.1186,1.1183,1.1161,1.1029,1.0949,1.1064,1.1063,1.1038,1.0865,1.0813,1.0795,1.0591,1.0731,1.072,1.0712,1.0707,1.0257,1.0253,0,0,0,0,0,0,1.147,1.1432,1.1144,1.1131,1.1323,1.1173,1.1148,1.108,1.095,1.0934,1.1035,1.1039,1.0832,1.081,1.0788,1.0597,1.0718,1.0706,1.0699,1.0262,1.0256,1.0252,0,0,0,0,0,0,1.1479,1.1445,1.1153,1.1281,1.1244,1.1162,1.1085,1.1074,1.1022,1.0929,1.0914,1.0997,1.0834,1.0805,1.0658,1.059,1.07,1.0689,1.0267,1.026,1.0254,1.0216,0,0,0,0,0,0,1.149,1.1448,1.1389,1.128,1.1237,1.1028,1.1081,1.1067,1.1001,1.1004,1.0889,1.0874,1.0835,1.0677,1.0646,1.0574,1.0679,1.0273,1.0264,1.0256,1.0223,1.0208,1.0196,0,0,0,0,0,1.1504,1.1385,1.1386,1.1351,1.1162,1.1024,1.0999,1.0959,1.0996,1.0935,1.0875,1.0877,1.0603,1.0662,1.0627,1.0551,1.0277,1.0266,1.0257,1.0228,1.0211,1.0197,0,0,0,0,0,0,1.1485,1.137,1.137,1.1213,1.1129,1.1023,1.0946,1.0942,1.0843,1.085,1.0802,1.0776,1.063,1.0576,1.0644,1.0394,1.0444,1.0426,1.0434,1.0417,1.0404,1.042,1.0669,0,0,0,0,0,1.1463,1.1362,1.1267,1.1137,1.1095,1.1028,1.0966,1.0943,1.0852,1.0816,1.0746,1.0657,1.0551,1.0481,1.0378,1.0216,1.019,1.0146,1.0133,1.0123,1.0107,1.0017,0.9996,1.0218,1.0219,1.0219,0,0,1.1416,1.1341,1.1279,1.1132,1.1064,1.0958,1.0998,1.0885,1.0806,1.0798,1.0655,1.0601,1.0498,1.0343,1.0271,1.0293,1.0041,1.011,1.0102,1.0092,1.0005,0.9984,0.9965,1.0212,1.0213,1.0214,0,0,1.1276,1.1209,1.1094,1.1026,1.0924,1.088,1.0853,1.0748,1.0712,1.0569,1.0561,1.0466,1.0284,1.0211,1.0151,0.9985,0.9983,0.9953,0.9883,0.9796,0.9778,0.9763,0.9703,0.9682,0.9939,0.9938,0.9938,0,1.1229,1.1072,1.1035,1.0922,1.0857,1.0848,1.0731,1.0666,1.0534,1.0488,1.0516,1.0288,1.0218,1.0046,1.0006,0.9957,0.9923,0.9965,0.9784,0.9768,0.9753,0.9695,0.9673,0.9935,0.9936,0.9936,0.9936,0,1.102,1.0911,1.083,1.0706,1.0632,1.0517,1.0461,1.039,1.0374,1.0327,1.018,1.0097,0.9977,0.9935,0.9917,0.9759,0.9776,0.9795,0.9844,0.9729,0.9674,0.9652,0.9931,0.9932,0.9933,0.9934,0,0,1.0859,1.0718,1.0688,1.0632,1.0519,1.0433,1.0319,1.0203,1.0143,1.0053,0.9954,0.9802,0.9818,0.9749,0.9723,0.9647,0.952,0.9674,0.9671,0.9647,0.9341,0.9327,0.9302,0.9519,0.9515,0.9511,0.9349,0,1.0706,1.0503,1.0467,1.0289,1.0187,1.0179,1.0078,0.9997,0.9951,0.9857,0.9805,0.9698,0.9728,0.9687,0.9611,0.9552,0.9458,0.9563,0.9425,0.942,0.9449,0.9273,0.9257,0.9108,0.9327,0.9324,0.9321,0,1.0499,1.0406,1.0219,1.0121,1.0077,0.9988,0.9879,0.9791,0.9699,0.967,0.9595,0.9577,0.9456,0.9513,0.9344,0.9417,0.9359,0.9321,0.9315,0.9298,0.9363,0.9251,0.9059,0.9037,0.9287,0.929,0.9292,0,1.04,1.0228,1.0094,1.0046,0.9928,0.9865,0.9813,0.9725,0.9659,0.9564,0.952,0.9412,0.9352,0.9268,0.9222,0.9267,0.9057,0.9109,0.9028,0.9029,0.8982,0.8985,0.8777,0.8947,0.8948,0.8948,0.8949,0,1.0231,1.0116,1.0048,0.9965,0.9836,0.9795,0.9668,0.9617,0.9539,0.9445,0.9431,0.9343,0.9288,0.9191,0.9155,0.902,0.8994,0.8966,0.8957,0.8966,0.897,0.8926,0.8934,0.8942,0.8944,0.8945,0.8946,0,1.0097,1.0047,0.99,0.9802,0.9774,0.9683,0.9598,0.9517,0.9472,0.9353,0.9323,0.9251,0.9137,0.9083,0.8941,0.8917,0.8764,0.8763,0.8795,0.8791,0.8713,0.8721,0.8468,0.8432,0.8628,0.8626,0.8624,0,0.9992,0.9904,0.9798,0.9735,0.9682,0.958,0.9513,0.947,0.94,0.929,0.9221,0.9107,0.9014,0.8831,0.8765,0.8657,0.8652,0.8571,0.8635,0.8647,0.8649,0.8654,0.8645,0.8559,0.8557,0.8555,0.8554,0,0.9811,0.9791,0.9696,0.9592,0.9513,0.9428,0.9345,0.9293,0.9237,0.9159,0.9044,0.8971,0.8828,0.8714,0.8601,0.8546,0.8539,0.8535,0.851,0.8517,0.854,0.8526,0.8762,0.854,0.8542,0.8543,0.8543,0.8544,0.9687,0.9609,0.9522,0.9416,0.935,0.9273,0.9192,0.9138,0.9041,0.8922,0.8903,0.8779,0.869,0.8538,0.8479,0.8381,0.84,0.8364,0.8355,0.8346,0.8341,0.8557,0.836,0.8361,0.8361,0.8361,0.8362,0,0.9504,0.9449,0.9352,0.9238,0.9154,0.9159,0.9068,0.8997,0.889,0.8808,0.8717,0.8584,0.8474,0.8401,0.8289,0.8225,0.8219,0.8196,0.82,0.8187,0.8331,0.8364,0.8203,0.8203,0.8203,0.8203,0.8203,0.8203,0.9399,0.9267,0.9237,0.9071,0.9015,0.8896,0.8844,0.8772,0.8707,0.856,0.8469,0.8423,0.8344,0.8227,0.8126,0.8107,0.8066,0.8043,0.8024,0.816,0.8177,0.8193,0.8222,0.8035,0.8035,0.7888,0.7887,0.7886]}]]